TimeEDT,TemperatureF,Dew PointF,Humidity,Sea Level PressureIn,VisibilityMPH,Wind Direction,Wind SpeedMPH,Gust SpeedMPH,PrecipitationIn,Events,Conditions,WindDirDegrees,DateUTC
12:00 AM,64.9,60.1,84,29.90,10.0,SE,9.2,-,0.00,,Mostly Cloudy,130,2012-10-19 04:00:00
12:16 AM,64.4,60.8,88,29.89,10.0,SE,11.5,19.6,N/A,,Mostly Cloudy,130,2012-10-19 04:16:00
1:16 AM,66.2,60.8,83,29.91,10.0,SSE,12.7,19.6,N/A,,Overcast,160,2012-10-19 05:16:00
1:41 AM,64.4,60.8,88,29.91,9.0,SSE,8.1,-,0.00,Rain,Light Rain,150,2012-10-19 05:41:00
2:00 AM,64.0,60.1,87,29.89,10.0,SE,9.2,-,0.00,Rain,Light Rain,140,2012-10-19 06:00:00
2:30 AM,64.4,60.8,88,29.88,10.0,SSE,9.2,-,0.00,,Mostly Cloudy,150,2012-10-19 06:30:00
3:00 AM,64.4,60.8,88,29.86,10.0,SSE,12.7,-,0.00,,Overcast,160,2012-10-19 07:00:00
3:06 AM,64.0,61.0,90,29.85,10.0,SSE,12.7,20.7,0.00,,Overcast,150,2012-10-19 07:06:00
3:42 AM,64.4,60.8,88,29.84,10.0,SE,10.4,-,N/A,,Overcast,130,2012-10-19 07:42:00
4:00 AM,64.4,60.8,88,29.84,9.0,SE,10.4,-,0.00,Rain,Light Rain,140,2012-10-19 08:00:00
4:06 AM,64.0,61.0,90,29.83,10.0,SE,9.2,-,0.00,,Overcast,130,2012-10-19 08:06:00
4:33 AM,62.6,62.6,100,29.83,1.8,ESE,5.8,-,0.00,Rain,Heavy Rain,120,2012-10-19 08:33:00
4:41 AM,62.6,62.6,100,29.83,3.0,ESE,6.9,-,0.00,Rain,Light Rain,110,2012-10-19 08:41:00
4:49 AM,62.6,62.6,100,29.83,10.0,SE,6.9,-,0.00,,Overcast,130,2012-10-19 08:49:00
5:00 AM,64.0,63.0,96,29.83,10.0,ESE,9.2,-,0.00,,Overcast,120,2012-10-19 09:00:00
5:19 AM,64.4,62.6,94,29.83,8.0,ESE,10.4,-,0.00,Rain,Light Rain,120,2012-10-19 09:19:00
5:26 AM,64.4,62.6,94,29.83,4.0,ESE,11.5,-,0.00,Rain,Light Rain,120,2012-10-19 09:26:00
6:00 AM,64.4,62.6,94,29.83,6.0,SE,12.7,20.7,0.00,Rain,Light Rain,130,2012-10-19 10:00:00
6:14 AM,64.9,63.0,93,29.82,4.0,ESE,15.0,20.7,0.00,Rain,Light Rain,120,2012-10-19 10:14:00
7:00 AM,64.4,62.6,94,29.82,2.0,SE,12.7,20.7,0.00,Rain,Heavy Rain,140,2012-10-19 11:00:00
7:15 AM,64.0,63.0,96,29.80,1.5,SE,11.5,21.9,N/A,Rain,Heavy Rain,130,2012-10-19 11:15:00
7:23 AM,64.4,62.6,94,29.81,3.0,SE,11.5,21.9,N/A,Rain,Light Rain,140,2012-10-19 11:23:00
8:00 AM,64.0,63.0,96,29.81,10.0,SSE,10.4,20.7,N/A,,Overcast,160,2012-10-19 12:00:00
9:00 AM,64.9,63.0,93,29.81,8.0,SSE,13.8,-,N/A,Rain,Light Rain,150,2012-10-19 13:00:00
9:39 AM,64.4,62.6,94,29.80,8.0,SE,10.4,-,N/A,Rain,Light Rain,140,2012-10-19 13:39:00
10:00 AM,64.9,64.0,97,29.80,9.0,SSE,12.7,20.7,N/A,,Overcast,150,2012-10-19 14:00:00
11:00 AM,66.0,64.9,96,29.77,9.0,SSE,11.5,-,N/A,,Overcast,150,2012-10-19 15:00:00
11:23 AM,66.2,64.4,94,29.77,9.0,SSE,12.7,23.0,N/A,Rain,Light Rain,150,2012-10-19 15:23:00
11:31 AM,66.2,64.4,94,29.77,9.0,SSE,13.8,20.7,N/A,Rain,Light Rain,150,2012-10-19 15:31:00
1:00 PM,70.0,64.9,84,29.74,10.0,SSE,11.5,23.0,N/A,,Overcast,150,2012-10-19 17:00:00
1:23 PM,69.8,64.4,83,29.74,10.0,SSE,13.8,-,N/A,,Overcast,160,2012-10-19 17:23:00
2:00 PM,72.0,64.9,78,29.72,10.0,South,12.7,18.4,N/A,,Overcast,170,2012-10-19 18:00:00
2:21 PM,71.6,64.4,78,29.72,10.0,South,15.0,-,N/A,,Overcast,170,2012-10-19 18:21:00
2:32 PM,-9999,-9999,N/A,-9999,-9999.0,North,-9999.0,-,N/A,,Unknown,0,2012-10-19 18:32:00
3:00 PM,72.0,64.9,78,29.70,10.0,SSE,10.4,19.6,N/A,,Overcast,150,2012-10-19 19:00:00
4:00 PM,71.1,64.9,81,29.69,10.0,South,8.1,-,N/A,,Overcast,170,2012-10-19 20:00:00
5:00 PM,71.1,64.9,81,29.68,10.0,South,10.4,-,N/A,,Overcast,170,2012-10-19 21:00:00
6:00 PM,70.0,64.9,84,29.66,10.0,South,6.9,-,N/A,,Mostly Cloudy,170,2012-10-19 22:00:00
6:18 PM,69.8,64.4,83,29.67,10.0,SSE,6.9,-,N/A,,Partly Cloudy,160,2012-10-19 22:18:00
8:00 PM,64.9,64.0,97,29.67,7.0,SSE,9.2,-,N/A,,Clear,160,2012-10-20 00:00:00
8:13 PM,66.2,64.4,94,29.67,8.0,SSE,10.4,-,N/A,,Scattered Clouds,160,2012-10-20 00:13:00
9:00 PM,66.0,64.0,93,29.65,8.0,South,8.1,-,N/A,,Clear,180,2012-10-20 01:00:00
10:00 PM,66.0,64.0,93,29.66,9.0,SSW,9.2,-,N/A,,Partly Cloudy,200,2012-10-20 02:00:00
10:21 PM,64.4,64.4,100,29.68,7.0,SW,6.9,-,N/A,,Partly Cloudy,230,2012-10-20 02:21:00
10:38 PM,64.4,64.4,100,29.68,6.0,SW,4.6,-,N/A,,Mostly Cloudy,220,2012-10-20 02:38:00
11:00 PM,64.0,63.0,96,29.68,5.0,South,4.6,-,N/A,,Mostly Cloudy,170,2012-10-20 03:00:00
11:10 PM,64.4,62.6,94,29.68,5.0,South,5.8,-,N/A,,Partly Cloudy,180,2012-10-20 03:10:00